Weather History for Olney-Noble, IL

Change the Weather History Date:

Thursday, October 27, 2011

  Actual Average (KEVV) Record (KEVV)
Temperature  
Mean Temperature 50 °F 54 °F  
Max Temperature 53 °F 66 °F 85 °F (1963)
Min Temperature 46 °F 43 °F 27 °F (1961)
Degree Days  
Heating Degree Days 16 11  
Month to date heating degree days 210  
Since 1 July heating degree days 257  
Cooling Degree Days 0 0  
Month to date cooling degree days 28  
Year to date cooling degree days 1394  
Moisture  
Dew Point 42 °F    
Average Humidity 77    
Maximum Humidity 100    
Minimum Humidity 51    
Precipitation  
Precipitation 0.00 in 0.11 in 1.76 in (1947)
Month to date precipitation 2.80  
Year to date precipitation 36.77  
Snow  
Snow 0.00 in 0.10 in T in (2008)
Month to date snowfall 0.2  
Since 1 July snowfall 0.2  
Since 1 September snowfall 0.2  
Snow Depth -    
Sea Level Pressure  
Sea Level Pressure 29.99 in    
Wind  
Wind Speed 9 mph (NNW)    
Max Wind Speed 15 mph    
Max Gust Speed 22 mph    
Visibility 9 miles    
Events      
T = Trace of Precipitation, MM = Missing Value Source: NWS Daily Summary

Daily Weather History Graph

Daily Weather History Graph

Search for Another Location

Airport:

Trip Planner

Search our weather history database for the weather conditions in past years. The results will help you decide how hot, cold, wet, or windy it might be!

Date:

Astronomy

Oct. 27, 2011 Rise Set
Actual Time 7:13 AM CDT 5:58 PM CDT
Civil Twilight 6:46 AM CDT 6:25 PM CDT
Nautical Twilight 6:15 AM CDT 6:57 PM CDT
Astronomical Twilight 5:44 AM CDT 7:27 PM CDT
Moon 8:15 AM CDT 6:29 PM CDT
Length of Visible Light 11h 39m
Length of Day
10h 44m
New Moon, 1% of the Moon is Illuminated
Oct 27
New Moon
Nov 2
First Quarter
Nov 10
Full
Nov 18
Last Quarter
Nov 25
New

Hourly Weather History & Observations

Time (CDT) Temp. Windchill Dew Point Humidity Pressure Visibility Wind Dir Wind Speed Gust Speed Precip Events Conditions
12:15 AM 48.2 °F - 48.2 °F 100% 29.91 in 7.0 mi NNW 5.8 mph - N/A   Overcast
12:35 AM 48.2 °F - 48.2 °F 100% 29.90 in 7.0 mi NNW 5.8 mph - N/A   Overcast
12:55 AM 48.2 °F - 48.2 °F 100% 29.90 in 7.0 mi North 4.6 mph - N/A   Overcast
1:15 AM 48.2 °F - 48.2 °F 100% 29.90 in 5.0 mi NNW 4.6 mph - N/A   Overcast
1:35 AM 48.2 °F - 48.2 °F 100% 29.91 in 7.0 mi NW 8.1 mph - N/A   Overcast
1:55 AM 48.2 °F - 48.2 °F 100% 29.89 in 5.0 mi NNW 6.9 mph - N/A   Overcast
2:15 AM 48.2 °F - 48.2 °F 100% 29.90 in 5.0 mi NNW 8.1 mph - N/A   Overcast
2:35 AM 48.2 °F - 48.2 °F 100% 29.90 in 7.0 mi NNW 9.2 mph - N/A   Overcast
2:55 AM 48.2 °F - 48.2 °F 100% 29.90 in 7.0 mi NNW 8.1 mph - N/A   Overcast
3:15 AM 48.2 °F - 48.2 °F 100% 29.91 in 7.0 mi NNW 9.2 mph - N/A   Overcast
3:35 AM 48.2 °F - 46.4 °F 93% 29.90 in 7.0 mi NNW 9.2 mph - N/A   Overcast
3:55 AM 48.2 °F - 46.4 °F 93% 29.90 in 7.0 mi NNW 9.2 mph - N/A   Overcast
4:15 AM 48.2 °F - 46.4 °F 93% 29.91 in 7.0 mi NNW 10.4 mph - N/A   Overcast
4:35 AM 48.2 °F - 46.4 °F 93% 29.92 in 7.0 mi NNW 9.2 mph - N/A   Overcast
4:55 AM 48.2 °F - 44.6 °F 87% 29.92 in 7.0 mi NNW 11.5 mph - N/A   Overcast
5:15 AM 48.2 °F - 44.6 °F 87% 29.93 in 10.0 mi NNW 12.7 mph - N/A   Overcast
5:35 AM 48.2 °F - 44.6 °F 87% 29.94 in 10.0 mi NNW 10.4 mph - N/A   Overcast
5:55 AM 48.2 °F - 44.6 °F 87% 29.94 in 10.0 mi NNW 10.4 mph - N/A   Overcast
6:15 AM 48.2 °F - 44.6 °F 87% 29.94 in 10.0 mi NNW 8.1 mph 17.3 mph N/A   Overcast
6:35 AM 48.2 °F - 44.6 °F 87% 29.95 in 10.0 mi NNW 11.5 mph - N/A   Overcast
6:55 AM 46.4 °F 41.1 °F 44.6 °F 93% 29.96 in 10.0 mi NNW 11.5 mph - N/A   Overcast
7:15 AM 46.4 °F 41.5 °F 42.8 °F 87% - 10.0 mi NNW 10.4 mph - N/A   Overcast
7:35 AM 46.4 °F 41.1 °F 42.8 °F 87% 29.98 in 7.0 mi NW 11.5 mph - N/A   Overcast
7:55 AM 48.2 °F - 42.8 °F 82% 29.99 in 10.0 mi NNW 10.4 mph - N/A   Overcast
8:15 AM 48.2 °F - 42.8 °F 82% 29.99 in 10.0 mi NNW 15.0 mph - N/A   Overcast
8:35 AM 48.2 °F - 42.8 °F 82% 30.00 in 10.0 mi NW 15.0 mph 21.9 mph N/A   Overcast
8:55 AM 48.2 °F - 42.8 °F 82% 30.01 in 10.0 mi NNW 12.7 mph - N/A   Overcast
9:15 AM 48.2 °F - 42.8 °F 82% 30.01 in 10.0 mi NNW 12.7 mph 19.6 mph N/A   Overcast
9:35 AM 48.2 °F - 41.0 °F 76% 30.01 in 10.0 mi NNW 15.0 mph - N/A   Mostly Cloudy
9:55 AM 48.2 °F - 42.8 °F 82% 30.01 in 10.0 mi NNW 11.5 mph 19.6 mph N/A   Mostly Cloudy
10:15 AM 48.2 °F - 42.8 °F 82% 30.01 in 10.0 mi NNW 11.5 mph - N/A   Mostly Cloudy
10:35 AM 48.2 °F - 41.0 °F 76% 30.01 in 10.0 mi NNW 13.8 mph 19.6 mph N/A   Mostly Cloudy
10:55 AM 48.2 °F - 41.0 °F 76% 30.02 in 10.0 mi North 9.2 mph - N/A   Mostly Cloudy
11:15 AM 50.0 °F - 41.0 °F 71% 30.03 in 10.0 mi NNW 12.7 mph - N/A   Scattered Clouds
11:35 AM 51.8 °F - 41.0 °F 67% 30.03 in 10.0 mi NNW 12.7 mph - N/A   Scattered Clouds
11:55 AM 51.8 °F - 39.2 °F 62% 30.03 in 10.0 mi North 10.4 mph - N/A   Scattered Clouds
12:15 PM 53.6 °F - 41.0 °F 62% 30.04 in 10.0 mi NNW 10.4 mph - N/A   Scattered Clouds
12:35 PM 53.6 °F - 42.8 °F 67% 30.04 in 10.0 mi NW 9.2 mph - N/A   Scattered Clouds
12:55 PM 53.6 °F - 41.0 °F 62% 30.03 in 10.0 mi NNW 8.1 mph - N/A   Mostly Cloudy
1:15 PM 53.6 °F - 39.2 °F 58% 30.02 in 10.0 mi NNW 11.5 mph - N/A   Mostly Cloudy
1:35 PM 53.6 °F - 39.2 °F 58% 30.03 in 10.0 mi NNW 9.2 mph - N/A   Mostly Cloudy
1:55 PM 53.6 °F - 39.2 °F 58% 30.02 in 10.0 mi NNW 11.5 mph - N/A   Mostly Cloudy
2:15 PM 53.6 °F - 39.2 °F 58% 30.03 in 10.0 mi NNW 11.5 mph 17.3 mph N/A   Overcast
2:35 PM 53.6 °F - 39.2 °F 58% 30.03 in 10.0 mi NNW 10.4 mph - N/A   Mostly Cloudy
2:55 PM 53.6 °F - 37.4 °F 54% 30.04 in 10.0 mi North 10.4 mph - N/A   Mostly Cloudy
3:15 PM 53.6 °F - 37.4 °F 54% 30.04 in 10.0 mi NNW 8.1 mph - N/A   Mostly Cloudy
3:35 PM 53.6 °F - 37.4 °F 54% 30.05 in 10.0 mi NNW 12.7 mph - N/A   Overcast
3:55 PM 53.6 °F - 37.4 °F 54% 30.05 in 10.0 mi North 9.2 mph - N/A   Overcast
4:15 PM 53.6 °F - 37.4 °F 54% 30.05 in 10.0 mi North 10.4 mph - N/A   Overcast
4:35 PM 53.6 °F - 35.6 °F 51% 30.06 in 10.0 mi North 8.1 mph - N/A   Scattered Clouds
4:55 PM 51.8 °F - 35.6 °F 54% 30.06 in 10.0 mi North 8.1 mph - N/A   Clear
5:15 PM 51.8 °F - 37.4 °F 58% 30.07 in 10.0 mi North 8.1 mph - N/A   Clear
5:35 PM 50.0 °F - 35.6 °F 58% 30.08 in 10.0 mi NNE 6.9 mph - N/A   Scattered Clouds
5:55 PM 48.2 °F - 35.6 °F 62% 30.08 in 10.0 mi North 5.8 mph - N/A   Scattered Clouds
6:15 PM 48.2 °F - 37.4 °F 66% 30.10 in 10.0 mi NNE 3.5 mph - N/A   Scattered Clouds
6:35 PM 48.2 °F - 37.4 °F 66% 30.10 in 10.0 mi Calm Calm - N/A   Scattered Clouds
6:55 PM 46.4 °F - 37.4 °F 71% 30.11 in 10.0 mi Calm Calm - N/A   Scattered Clouds
7:15 PM 46.4 °F 45.2 °F 37.4 °F 71% 30.12 in 10.0 mi North 3.5 mph - N/A   Scattered Clouds
7:35 PM 46.4 °F - 37.4 °F 71% 30.14 in 10.0 mi Calm Calm - N/A   Clear
7:55 PM 44.6 °F - 37.4 °F 76% 30.14 in 10.0 mi Calm Calm - N/A   Clear
8:15 PM 42.8 °F - 37.4 °F 81% 30.14 in 10.0 mi Calm Calm - N/A   Clear
8:35 PM 42.8 °F - 37.4 °F 81% 30.14 in 10.0 mi Calm Calm - N/A   Clear
8:55 PM 39.2 °F - 37.4 °F 93% 30.15 in 10.0 mi Calm Calm - N/A   Clear
9:15 PM 39.2 °F - 37.4 °F 93% 30.15 in 10.0 mi Calm Calm - N/A   Clear
9:35 PM 39.2 °F - 39.2 °F 100% 30.14 in 10.0 mi Calm Calm - N/A   Clear
9:55 PM 39.2 °F - 39.2 °F 100% 30.14 in 10.0 mi Calm Calm - N/A   Clear
10:15 PM 39.2 °F - 39.2 °F 100% 30.15 in 10.0 mi Calm Calm - N/A   Clear
10:35 PM 39.2 °F - 39.2 °F 100% 30.15 in 10.0 mi Calm Calm - N/A   Clear
10:55 PM 39.2 °F - 39.2 °F 100% 30.15 in 10.0 mi Calm Calm - N/A   Clear
11:15 PM 37.4 °F - 37.4 °F 100% 30.15 in 10.0 mi Calm Calm - N/A   Clear
11:35 PM 37.4 °F - 37.4 °F 100% 30.15 in 10.0 mi Calm Calm - N/A   Clear